This is the latest recevied weather packets stored in our database for station/object KN6ETB-1. If no packets are shown the sender has not sent any weather packets the latest 1 day(s).
| Time | Temp. | Humidity | Pressure | Rain* | Wind** | Luminosity | Snow |
|---|---|---|---|---|---|---|---|
| 1778041652 | 15° C | 79% | 1013.7 hPa | 0 mm | - | 0 W/m² | - |
| 1778041350 | 15.56° C | 78% | 1013.7 hPa | 0 mm | - | 0 W/m² | - |
| 1778040745 | 15.56° C | 77% | 1013.8 hPa | 0 mm | - | 0 W/m² | - |
| 1778040139 | 15.56° C | 77% | 1013.7 hPa | 0 mm | - | 0 W/m² | - |
| 1778039836 | 15.56° C | 77% | 1013.6 hPa | 0 mm | - | 0 W/m² | - |
| 1778039533 | 15.56° C | 77% | 1013.7 hPa | 0 mm | - | 0 W/m² | - |
| 1778038927 | 15.56° C | 77% | 1013.4 hPa | 0 mm | - | 0 W/m² | - |
| 1778038624 | 15.56° C | 77% | 1013.7 hPa | 0 mm | - | 0 W/m² | - |
| 1778038321 | 15.56° C | 76% | 1013.3 hPa | 0 mm | - | 0 W/m² | - |
| 1778038018 | 16.11° C | 76% | 1013.2 hPa | 0 mm | - | 0 W/m² | - |
| 1778037715 | 16.11° C | 76% | 1013 hPa | 0 mm | - | 0 W/m² | - |
| 1778037108 | 16.11° C | 76% | 1013.2 hPa | 0 mm | - | 0 W/m² | - |
| 1778036504 | 16.67° C | 77% | 1013 hPa | 0 mm | - | 1 W/m² | - |
| 1778036201 | 16.67° C | 76% | 1012.8 hPa | 0 mm | - | 2 W/m² | - |
| 1778035290 | 16.67° C | 75% | 1012.7 hPa | 0 mm | - | 9 W/m² | - |
| 1778034987 | 16.67° C | 75% | 1012.9 hPa | 0 mm | - | 12 W/m² | - |
| 1778034684 | 16.67° C | 76% | 1012.8 hPa | 0 mm | - | 16 W/m² | - |
| 1778034381 | 16.67° C | 75% | 1012.8 hPa | 0 mm | - | 24 W/m² | - |
| 1778034079 | 16.67° C | 75% | 1012.5 hPa | 0 mm | - | 28 W/m² | - |
| 1778033776 | 17.22° C | 75% | 1012.6 hPa | 0 mm | - | 36 W/m² | - |
| 1778033170 | 17.22° C | 74% | 1012.5 hPa | 0 mm | - | 45 W/m² | - |
| 1778032262 | 17.22° C | 74% | 1012.5 hPa | 0 mm | - | 62 W/m² | - |
| 1778031960 | 17.78° C | 73% | 1012.4 hPa | 0 mm | - | 62 W/m² | - |
| 1778031655 | 17.78° C | 74% | 1012.5 hPa | 0 mm | - | 65 W/m² | - |
| 1778031354 | 17.78° C | 74% | 1012.6 hPa | 0 mm | - | 69 W/m² | - |
* Rain latest hour (hover to see other rain measurements)
** Current wind speed in m/s (hover to see current wind gust speed)